Ainsworth, NE

8:59 PM CDT on September 21, 2017 (GMT -0500)
Ainsworth Municipal

Weather History for KANW - January, 2013

Change the Weather History Date:

Saturday, January 26, 2013

  Actual Average Record
Temperature  
Mean Temperature 40 °F -  
Max Temperature 58 °F 34 °F 68 °F (2002)
Min Temperature 21 °F 15 °F -5 °F (1997)
Degree Days  
Heating Degree Days 26    
Moisture  
Dew Point 24 °F    
Average Humidity 60    
Maximum Humidity 89    
Minimum Humidity 27    
Precipitation  
Precipitation 0.00 in - - ()
Sea Level Pressure  
Sea Level Pressure 29.92 in    
Wind  
Wind Speed 8 mph (South)    
Max Wind Speed 15 mph    
Max Gust Speed 16 mph    
Visibility 10 miles    
Events      
Averages and records for this station are not official NWS values.
T = Trace of Precipitation, MM = Missing Value Source: NWS Daily Summary

Daily Weather History Graph

Daily Weather History Graph

Search for Another Location

Airport or City:

Trip Planner

Search our weather history database for the weather conditions in past years. The results will help you decide how hot, cold, wet, or windy it might be!

Date:

Astronomy

Jan. 26, 2013 Rise Set
Actual Time 7:59 AM CST 5:46 PM CST
Civil Twilight 7:29 AM CST 6:16 PM CST
Nautical Twilight 6:55 AM CST 6:50 PM CST
Astronomical Twilight 6:21 AM CST 7:23 PM CST
Moon 5:43 PM CST (1/26) 7:17 AM CST (1/26)
Length of Visible Light 10h 47m
Length of Day
9h 46m
Full, 100% of the Moon is Illuminated
Jan 26
Full
Jan 26
Full
Feb 3
Last Quarter
Feb 10
New
Feb 17
First Quarter

Hourly Weather History & Observations

Time (CST) Temp. Windchill Dew Point Humidity Pressure Visibility Wind Dir Wind Speed Gust Speed Precip Events Conditions
12:15 AM 22.1 °F 13.7 °F 18.3 °F 85% 30.09 in 10.0 mi ESE 6.9 mph - N/A   Clear
12:35 AM 21.9 °F 13.4 °F 18.1 °F 85% 30.08 in 10.0 mi ESE 6.9 mph - N/A   Clear
12:55 AM 22.3 °F 14.9 °F 19.0 °F 87% 30.07 in 10.0 mi SE 5.8 mph - N/A   Clear
1:15 AM 22.1 °F 13.7 °F 18.5 °F 86% 30.06 in 10.0 mi SE 6.9 mph - N/A   Clear
1:35 AM 22.6 °F 15.3 °F 19.0 °F 86% 30.05 in 10.0 mi ESE 5.8 mph - N/A   Clear
1:55 AM 21.9 °F 14.5 °F 18.5 °F 87% 30.04 in 10.0 mi SE 5.8 mph - N/A   Clear
2:15 AM 22.1 °F 13.7 °F 18.9 °F 87% 30.04 in 10.0 mi ESE 6.9 mph - N/A   Clear
2:35 AM 21.2 °F 11.7 °F 18.1 °F 88% 30.03 in 10.0 mi SE 8.1 mph - N/A   Clear
2:55 AM 21.0 °F 12.4 °F 18.1 °F 89% 30.03 in 10.0 mi SE 6.9 mph - N/A   Clear
3:15 AM 21.0 °F 11.4 °F 18.1 °F 89% 30.02 in 10.0 mi SSE 8.1 mph - N/A   Clear
3:35 AM 22.1 °F 15.9 °F 18.3 °F 85% 30.01 in 10.0 mi SSE 4.6 mph - N/A   Clear
3:55 AM 23.4 °F 17.4 °F 19.0 °F 84% 30.01 in 10.0 mi SSE 4.6 mph - N/A   Clear
4:15 AM 23.2 °F 16.0 °F 18.7 °F 83% 29.99 in 10.0 mi SSE 5.8 mph - N/A   Clear
4:35 AM 25.7 °F 19.0 °F 20.5 °F 81% 29.98 in 10.0 mi South 5.8 mph - N/A   Clear
4:55 AM 28.4 °F 22.2 °F 22.6 °F 79% 29.98 in 10.0 mi South 5.8 mph - N/A   Clear
5:15 AM 27.5 °F 19.3 °F 21.6 °F 78% 29.98 in 10.0 mi South 8.1 mph - N/A   Clear
5:35 AM 26.6 °F 18.2 °F 21.0 °F 79% 29.98 in 10.0 mi South 8.1 mph - N/A   Clear
5:55 AM 27.0 °F 19.5 °F 21.0 °F 78% 29.98 in 10.0 mi SSW 6.9 mph - N/A   Clear
6:15 AM 25.2 °F 17.3 °F 20.1 °F 81% 29.97 in 10.0 mi South 6.9 mph - N/A   Clear
6:35 AM 24.4 °F 20.1 °F 19.8 °F 82% 29.97 in 10.0 mi WSW 3.5 mph - N/A   Clear
6:55 AM 24.8 °F 20.5 °F 19.9 °F 82% 29.96 in 10.0 mi SSW 3.5 mph - N/A   Clear
7:15 AM 23.5 °F 17.6 °F 19.6 °F 85% 29.96 in 10.0 mi SSW 4.6 mph - N/A   Clear
7:35 AM 22.8 °F 18.2 °F 19.0 °F 85% 29.96 in 10.0 mi South 3.5 mph - N/A   Clear
7:55 AM 22.6 °F 15.3 °F 18.9 °F 85% 29.96 in 10.0 mi SSW 5.8 mph - N/A   Clear
8:15 AM 27.5 °F 19.3 °F 23.0 °F 83% 29.96 in 10.0 mi SSW 8.1 mph - N/A   Mostly Cloudy
8:35 AM 30.0 °F 24.1 °F 23.9 °F 78% 29.96 in 10.0 mi SSW 5.8 mph - N/A   Overcast
8:55 AM 31.1 °F 26.4 °F 25.7 °F 80% 29.97 in 10.0 mi WSW 4.6 mph - N/A   Overcast
9:15 AM 32.7 °F 28.3 °F 27.0 °F 79% 29.96 in 10.0 mi SSW 4.6 mph - N/A   Overcast
9:35 AM 35.2 °F 30.3 °F 27.5 °F 73% 29.96 in 10.0 mi SSW 5.8 mph - N/A   Overcast
9:55 AM 38.3 °F 32.5 °F 29.1 °F 70% 29.95 in 10.0 mi SSW 8.1 mph - N/A   Mostly Cloudy
10:15 AM 42.6 °F 35.9 °F 29.3 °F 59% 29.94 in 10.0 mi SSW 12.7 mph - N/A   Scattered Clouds
10:35 AM 46.0 °F 41.0 °F 27.7 °F 49% 29.93 in 10.0 mi SW 10.4 mph - N/A   Scattered Clouds
10:55 AM 48.7 °F - 27.0 °F 43% 29.94 in 10.0 mi SSW 10.4 mph - N/A   Mostly Cloudy
11:15 AM 50.4 °F - 26.1 °F 39% 29.94 in 10.0 mi SSW 12.7 mph - N/A   Mostly Cloudy
11:35 AM 51.6 °F - 26.2 °F 37% 29.94 in 10.0 mi SSW 11.5 mph 16.1 mph N/A   Mostly Cloudy
11:55 AM 53.1 °F - 25.7 °F 35% 29.92 in 10.0 mi South 11.5 mph - N/A   Overcast
12:15 PM 52.7 °F - 25.7 °F 35% 29.91 in 10.0 mi South 15.0 mph - N/A   Mostly Cloudy
12:35 PM 57.0 °F - 25.2 °F 29% 29.90 in 10.0 mi SSW 13.8 mph - N/A   Scattered Clouds
12:55 PM 57.7 °F - 24.8 °F 28% 29.89 in 10.0 mi South 13.8 mph - N/A   Scattered Clouds
1:15 PM 58.6 °F - 24.4 °F 27% 29.88 in 10.0 mi South 13.8 mph - N/A   Clear
1:35 PM 57.7 °F - 23.9 °F 27% 29.88 in 10.0 mi South 15.0 mph - N/A   Clear
1:55 PM 57.7 °F - 24.3 °F 28% 29.87 in 10.0 mi South 13.8 mph - N/A   Clear
2:15 PM 57.4 °F - 24.6 °F 28% 29.87 in 10.0 mi South 15.0 mph - N/A   Clear
2:35 PM 57.7 °F - 24.8 °F 28% 29.85 in 10.0 mi SSW 15.0 mph - N/A   Clear
2:55 PM 58.1 °F - 24.8 °F 28% 29.85 in 10.0 mi South 12.7 mph - N/A   Clear
3:15 PM 58.1 °F - 24.6 °F 28% 29.85 in 10.0 mi South 10.4 mph - N/A   Clear
3:35 PM 58.3 °F - 24.6 °F 27% 29.85 in 10.0 mi South 12.7 mph - N/A   Clear
3:55 PM 56.8 °F - 24.6 °F 29% 29.84 in 10.0 mi South 12.7 mph - N/A   Clear
4:15 PM 56.5 °F - 24.8 °F 30% 29.84 in 10.0 mi South 13.8 mph - N/A   Clear
4:35 PM 53.6 °F - 24.6 °F 33% 29.84 in 10.0 mi South 12.7 mph - N/A   Clear
4:55 PM 50.9 °F - 25.3 °F 37% 29.83 in 10.0 mi South 11.5 mph - N/A   Clear
5:15 PM 49.5 °F - 25.5 °F 39% 29.83 in 10.0 mi South 10.4 mph - N/A   Clear
5:35 PM 48.4 °F - 25.7 °F 41% 29.83 in 10.0 mi South 11.5 mph - N/A   Clear
5:55 PM 46.2 °F 41.7 °F 25.5 °F 44% 29.84 in 10.0 mi South 9.2 mph - N/A   Clear
6:15 PM 46.6 °F - 25.7 °F 44% 29.84 in 10.0 mi South 12.7 mph - N/A   Clear
6:35 PM 44.1 °F 39.0 °F 25.7 °F 49% 29.84 in 10.0 mi South 9.2 mph - N/A   Clear
6:55 PM 43.3 °F 37.7 °F 26.2 °F 51% 29.84 in 10.0 mi South 10.4 mph - N/A   Clear
7:15 PM 42.4 °F 37.0 °F 26.4 °F 53% 29.84 in 10.0 mi South 9.2 mph - N/A   Clear
7:35 PM 42.1 °F 37.1 °F 26.4 °F 54% 29.84 in 10.0 mi South 8.1 mph - N/A   Clear
7:55 PM 42.8 °F 37.5 °F 26.8 °F 53% 29.84 in 10.0 mi South 9.2 mph - N/A   Clear
8:15 PM 40.6 °F 35.4 °F 26.4 °F 57% 29.84 in 10.0 mi South 8.1 mph - N/A   Clear
8:35 PM 41.2 °F 35.5 °F 27.1 °F 57% 29.84 in 10.0 mi South 9.2 mph - N/A   Clear
8:55 PM 39.6 °F 34.7 °F 26.8 °F 60% 29.83 in 10.0 mi South 6.9 mph - N/A   Clear
9:15 PM 38.5 °F 33.4 °F 26.8 °F 63% 29.83 in 10.0 mi South 6.9 mph - N/A   Clear
9:35 PM 38.8 °F 33.2 °F 27.5 °F 64% 29.83 in 10.0 mi South 8.1 mph - N/A   Clear
9:55 PM 39.4 °F 33.8 °F 27.9 °F 63% 29.83 in 10.0 mi South 8.1 mph - N/A   Clear
10:15 PM 39.7 °F 35.6 °F 27.9 °F 63% 29.82 in 10.0 mi SSW 5.8 mph - N/A   Clear
10:35 PM 41.0 °F 35.8 °F 27.9 °F 60% 29.82 in 10.0 mi SSW 8.1 mph - N/A   Clear
10:55 PM 41.2 °F 35.0 °F 27.5 °F 58% 29.82 in 10.0 mi South 10.4 mph - N/A   Clear
11:15 PM 40.3 °F 34.9 °F 27.5 °F 60% 29.81 in 10.0 mi South 8.1 mph - N/A   Clear
11:35 PM 41.0 °F 35.2 °F 27.5 °F 59% 29.81 in 10.0 mi South 9.2 mph - N/A   Clear
11:55 PM 41.2 °F 36.0 °F 27.3 °F 58% 29.80 in 10.0 mi South 8.1 mph - N/A   Clear